Regional Weather Roundup
Issued by NWS Charleston, SC

Current Version | Previous Version | Graphics & Text | Print | Product List | Glossary On
Versions: 1 2 3 4 5 6 7 8 9 10 11 12 13 14 15 16 17 18 19 20 21 22 23 24 25 26 27 28 29 30 31 32 33 34 35 36 37 38 39 40 41 42 43 44 45 46 47 48 49 50
280
ASUS42 KCHS 221312
RWRCHS

REGIONAL WEATHER ROUNDUP
NATIONAL WEATHER SERVICE CHARLESTON SC
900 AM EDT FRI MAY 22 2015

NOTE: "FAIR" INDICATES FEW OR NO CLOUDS BELOW 12,000 FEET WITH NO
SIGNIFICANT WEATHER AND/OR OBSTRUCTIONS TO VISIBILITY.

NOT ALL STATIONS ARE QUALITY CONTROLLED BY THE NATIONAL
WEATHER SERVICE. USE DATA WITH CAUTION...ESPECIALLY
DEWPOINT OBSERVATIONS.

SCZ027-030-031-034>040-042>050-221400-
...SOUTHEAST SOUTH CAROLINA...

CITY           SKY/WX    TMP DP  RH WIND       PRES   REMARKS
N CHARLESTON   PTSUNNY   69  51  52 NE17G25   30.12R
WATERFRONT PAR   N/A     69  58  68 NE15      30.08R
MOUNT PLEASANT FAIR      70  55  60 N9        30.12R
JOHNS ISLAND   PTSUNNY   70  54  56 NE15G21   30.11R
PINOPOLIS      NOT AVBL
MONCKS CORNER  CLOUDY    68  52  56 NE10G17   30.13R
SUMMERVILLE    CLOUDY    68  55  64 N9G17     30.13R
BEAUFORT MCAS  PTSUNNY   71  59  65 E10       30.10R
BEAUFORT ARPT  CLOUDY    70  61  73 NE14G22   30.09R
HILTON HEAD IS PTSUNNY   70  61  73 N7        30.10R
WALTERBORO     CLOUDY    68  54  60 NE15      30.13R
ALLENDALE      CLOUDY    70  59  68 VRB5      30.11R

...SOUTHERN MIDLANDS AND PEE DEE...

CITY           SKY/WX    TMP DP  RH WIND       PRES   REMARKS
GEORGETOWN     NOT AVBL
KINGSTREE      NOT AVBL
ORANGEBURG     CLOUDY    67  49  52 NE14G20   30.14R
BARNWELL       PTSUNNY   70  54  56 NE18G24   30.13R
AIKEN          CLOUDY    64  43  45 NE16G23   30.18R
MANNING        CLOUDY    64  46  52 NE14      30.15R
COLUMBIA       PTSUNNY   67  45  45 NE12      30.17R
SUMTER         PTSUNNY   65  47  52 NE15G23   30.15R
FLORENCE       CLOUDY    64  46  52 N13       30.17R
MYRTLE BEACH   PTSUNNY   66  52  59 N18       30.15R
N MYRTLE BEACH PTSUNNY   66  55  67 N12       30.13R

$$

GAZ063-065-086>088-099>101-113>116-118-119-134>141-150-221400-
...SOUTHEAST GEORGIA...

CITY           SKY/WX    TMP DP  RH WIND       PRES   REMARKS
SAVANNAH ARPT  PTSUNNY   69  56  62 N6        30.10R
HUNTER AAF     SUNNY     69  57  64 N6        30.07R
FORT STEWART   SUNNY     68  53  58 NW7       30.09R
STATESBORO     CLOUDY    64  57  77 N6        30.12R
SYLVANIA       CLOUDY    67  58  71 N7        30.12R
CLAXTON        FAIR      66  54  63 NW5       30.12R

...CSRA...CENTRAL AND FAR SOUTHEAST GEORGIA...

CITY           SKY/WX    TMP DP  RH WIND       PRES   REMARKS
THOMSON        PTSUNNY   65  55  69 NE9       30.19R
AUGUSTA-BUSH   CLOUDY    67  50  54 NE9       30.13R
AUGUSTA-DANIEL PTSUNNY   65  49  56 NE9       30.15R
SWAINSBORO     FAIR      64  54  68 N5        30.14R
VIDALIA        SUNNY     64  52  63 N6        30.13R
EASTMAN        FAIR      63  53  68 N7        30.18R
HAZLEHURST     FAIR      66  53  63 N6        30.13R
ALMA           SUNNY     66  52  60 N6        30.13R
WAYCROSS       SUNNY     68  57  67 N9        30.13R
JESUP          FAIR      70  55  60 N6        30.12R
BAXLEY         FAIR      66  52  59 N6        30.13R
BRUNSWICK      SUNNY     72  57  60 NW7       30.11R
SAINT SIMONS   NOT AVBL

$$

SCZ027-028-034-036>038-045-046-048>050-GAZ119-141-221400-
...LAKE AND SUPPLEMENTAL COASTAL OBSERVATIONS...

STATION/POSITION TIME  TEMP    WIND        PRES    WAVE   SWELL
                       AIR SEA DIR/SP/G            HT/PER HT/PER/DIR
                 (UTC) (F)     (DEG/KT/KT) (MB)    (FT/S) (FT/S/D)
UPR LAKE MARION  NOT AVBL
WINYAH BAY       NOT AVBL
LAKE MURRAY      1200   65      40/  4/  6 1020.0R
ACE BASIN NERRS  NOT AVBL
FORT PULASKI     1200   67 78  330/  8/ 10 1018.8R
SAPELO ISLAND    NOT AVBL

$$

ANZ835-935-AMZ111-154-330-350-352-354-370-450-454-472-221400-
...C-MAN AND BUOY OBSERVATIONS...

STATION/POSITION TIME  TEMP    WIND        PRES    WAVE   SWELL
                       AIR SEA DIR/SP/G            HT/PER HT/PER/DIR
                 (UTC) (F)     (DEG/KT/KT) (MB)    (FT/S) (FT/S/D)
BUOY 41004       1250   69 76   30/ 23/ 27 1017.9R   6/ 6   2/11
BUOY 41008       1250   71 77   20/ 14/ 16 1018.7R   3/ 4
FOLLY BEACH CMAN 1300   68      40/ 18/ 21 1019.8R
CAPERS NEARSHORE 1208   69      40/ 19/ 27 1019.2R
FRIPP NEARSHORE  1200   72      80/ 19/ 23 1017.8R


STATION/POSITION TIME  TEMP    WIND        PRES    WAVE   SWELL
                       AIR SEA DIR/SP/G            HT/PER HT/PER/DIR
                 (UTC) (F)     (DEG/KT/KT) (MB)    (FT/S) (FT/S/D)
5E ST. MARYS GA  1221      77                N/A     2/ 3
FRYING PAN BUOY  1250   68 74   30/ 19/ 23 1019.5R   5/ 5
BUOY 41025       1250   63 76  360/ 16/ 19 1018.8R   5/ 7   2/340/13
CAPE LOOKOUT NC  1300   62     360/ 14/ 17 1019.8R
BUOY 41002       1250   76 75  240/ 12/ 14 1016.8R   4/ 7   3/270/ 7
BUOY 41010       1220   81 79  250/ 10/ 10 1017.4R
ST AUGUSTINE FL  1300   73 72  350/ 13/ 14 1019.4R


$$



USA.gov is the U.S. government's official web portal to all federal, state and local government web resources and services.